Location: Hatfield Broad Oak
(51.8333°N, 0.2500°E)
Time: 07:57:09
(UTC+00:00)

Daily predictions for brighter satellites

Satellite Brightness Start Highest point End
(mag) Time Altitude Azimuth Time Altitude Azimuth Time Altitude Azimuth
USA 234 3.6 16:54:20 10° ENE 17:00:44 58° N 17:07:08 10° W
YAOGAN 1 4.2 16:58:39 10° E 17:01:07 15° NE 17:03:35 10° NNE
ATLAS 5 CENTAUR R/B 2.3 16:57:32 10° S 17:01:14 36° ESE 17:05:24 10° ENE
CZ-4C R/B 3.1 16:58:23 10° NNE 17:01:26 43° E 17:04:27 10° S
Cosmos 2082 4.1 16:56:13 10° SW 17:01:56 68° NW 17:07:39 10° NNE
FengYun 1-2 T 4.3 16:57:37 10° SE 17:03:03 58° ENE 17:08:34 10° N
Tsikada Rocket 4.0 16:57:49 10° S 17:04:06 74° E 17:10:21 10° NNE
NOAA 12 4.1 16:59:42 10° SSE 17:04:55 76° ENE 17:10:11 10° NNW
SL-14 R/B 3.8 17:02:16 10° SSE 17:05:52 38° E 17:09:32 10° NNE
ATLAS 3B R/B 3.5 16:59:34 10° NW 17:06:23 62° SW 17:13:28 10° SSE
RESURS DK-1 2.5 17:02:47 10° SSW 17:06:51 60° ESE 17:10:57 10° NE
Cosmos 2228 3.3 17:03:01 10° N 17:07:09 45° ENE 17:11:15 10° SSE
Cosmos 1400 Rocket 3.6 17:03:25 10° NNW 17:07:29 58° W 17:11:29 10° S
Cosmos 1538 Rocket 4.3 17:08:21 10° NNW 17:13:18 42° NE 17:18:12 10° SE
CZ-4C R/B 2.3 17:09:10 10° SW 17:14:19 79° NW 17:20:38 10° NE
Meteor 2-5 Rocket 3.9 17:09:25 10° S 17:14:47 52° E 17:20:09 10° NNE
CZ-3B R/B 1.2 17:13:15 10° WNW 17:15:13 51° NNE 17:18:55 10° E
SJ 16-02 3.3 17:16:43 10° ESE 17:17:47 11° E 17:18:51 10° ENE
CORIOLIS 4.2 17:16:17 10° SSE 17:21:41 87° ENE 17:27:06 10° NNW
Cosmos 2263 Rocket 2.3 17:16:40 10° SSW 17:22:17 64° ESE 17:27:52 10° NE
Cosmos 1455 3.6 17:21:41 10° NNE 17:24:26 19° ENE 17:27:12 10° ESE
Cosmos 968 Rocket 3.8 17:19:52 10° SW 17:24:57 66° WNW 17:30:04 10° NNE
Envisat 4.4 17:20:15 10° S 17:25:05 44° W 17:29:59 10° NNW
Cosmos 2058 Rocket 3.7 17:22:21 10° N 17:26:31 35° ENE 17:30:39 10° SE
Cosmos 1354 Rocket 4.1 17:21:39 10° SSW 17:26:56 68° ESE 17:32:16 10° NNE
NOAA 11 4.2 17:21:38 10° SSE 17:27:09 87° ENE 17:32:42 10° NNW
USA-17 4.3 17:24:46 10° SW 17:28:19 73° SE 17:30:59 13° NE
Cosmos 1300 2.6 17:25:06 10° N 17:28:57 82° E 17:32:46 10° SSE
NOSS 7 (H) 4.0 17:29:59 10° SW 17:33:12 86° SE 17:35:33 15° NE
Landsat 5 3.4 17:30:02 10° NNE 17:34:01 80° WNW 17:37:53 10° SSW
GENESIS II 4.4 17:32:11 10° SSW 17:36:09 61° SE 17:39:27 14° NE
ADEOS Rocket 4.1 17:32:03 10° N 17:37:51 41° WNW 17:43:10 10° SW
ARGOS 4.0 17:35:01 10° ESE 17:39:25 27° ENE 17:43:50 10° N
NOSS 3-1 (C) 4.2 17:32:49 10° NW 17:39:27 47° NNE 17:47:11 10° E
Lacrosse 5 1.8 17:34:25 10° WNW 17:39:30 78° NNE 17:44:34 10° ESE
CREW DRAGON DEMO-1 DEB 2.7 17:36:51 10° W 17:39:45 81° S 17:41:52 17° ESE
Cosmos 1943 4.1 17:35:50 10° NW 17:41:22 54° WSW 17:46:51 10° S
Okean 1-7 Rocket 4.5 17:38:09 10° SSE 17:42:04 29° E 17:46:01 10° NNE
Cosmos 1726 Rocket 3.5 17:37:49 10° N 17:42:12 72° ENE 17:46:34 10° SSE
ERS-2 3.4 17:42:03 17° ENE 17:43:24 21° E 17:46:13 10° SE
ISS -1.3 17:43:14 10° SSE 17:44:03 11° SE 17:44:51 10° ESE
CZ-2C R/B 4.4 17:45:49 13° E 17:45:49 13° E 17:47:18 10° ESE
Cosmos 1939 Rocket 2.8 17:42:05 10° SSE 17:46:12 80° ENE 17:50:18 10° NNW
Meteor 1-24 Rocket 3.5 17:43:33 10° S 17:48:52 75° E 17:54:10 10° NNE
COSMOS 2455 3.4 17:44:04 10° S 17:49:37 40° ESE 17:54:02 16° NE
Cosmos 1833 Rocket 3.9 17:48:16 10° NNW 17:52:37 22° NE 17:54:41 18° ENE
Cosmos 2082 Rocket 3.8 17:50:28 10° NNW 17:54:13 17° NNE 17:55:56 15° NE
Cosmos 1315 Rocket 3.8 17:50:53 10° NNW 17:54:44 51° W 17:58:37 10° S
USA 229 DEB 4.2 17:49:38 10° NW 17:56:24 45° NNE 18:01:49 18° E
USA 229 4.2 17:49:45 10° NW 17:56:30 45° NNE 18:01:52 18° E
IRS-1C Rocket 4.0 17:51:55 10° SSE 17:57:08 66° ENE 18:02:22 10° NNW
CZ-4 R/B 1.6 17:54:36 10° SE 17:58:32 46° ENE 18:02:24 10° N
Feng Yun 1-1 Rocket 4.2 17:54:23 10° SSE 17:59:50 88° ENE 18:05:26 10° NNW
COSMO-SKYMED 1 2.7 17:56:45 10° NNE 18:01:03 54° E 18:05:18 10° S
NOSS 3-4 (A) 4.2 17:55:58 10° W 18:01:45 46° NNW 18:07:06 14° NE
NOSS 3-4 (C) 4.2 17:56:06 10° WSW 18:01:54 46° NNW 18:07:15 14° NE
Cosmos 2279 Rocket 4.2 17:55:39 10° NNW 18:01:56 78° W 18:08:10 10° S
Cosmos 2227 4.5 18:00:58 10° SW 18:06:36 70° WNW 18:12:19 10° NNE
Cosmos 2227 Rocket 4.2 18:05:55 10° W 18:10:12 21° NNW 18:14:29 10° NNE
CZ-4B R/B 1.2 18:08:14 13° NNE 18:11:16 79° ESE 18:14:36 10° S
CZ-4 R/B 4.4 18:07:50 10° SSE 18:11:59 88° ENE 18:16:10 10° NNW
NOSS 3-1 (A) 4.2 18:05:19 10° NW 18:11:59 47° NNE 18:16:57 22° E
Okean-O 2.6 18:10:18 10° SSE 18:14:40 62° ENE 18:19:04 10° N
CSL-04 DEB 4.5 18:10:43 10° NNE 18:14:59 83° WNW 18:19:07 10° SSW
Cosmos 923 Rocket 4.0 18:09:46 10° NNW 18:15:06 60° ENE 18:20:21 10° SE
CZ-2C R/B 3.2 18:10:54 10° SSE 18:16:14 88° WSW 18:21:54 10° NNW
Cosmos 1844 Rocket 3.1 18:11:30 10° S 18:16:45 41° ESE 18:19:24 25° ENE
Okean O Rocket 3.5 18:13:47 10° SSW 18:17:47 32° W 18:21:48 10° NNW
Cosmos 1689 Rocket 4.3 18:20:00 14° SSE 18:20:00 14° SSE 18:20:34 10° SSE
Cosmos 1626 4.2 18:15:27 10° SW 18:18:38 27° WNW 18:21:51 10° N
H-2A R/B 1.9 18:13:45 10° SSE 18:18:40 62° ENE 18:23:45 10° N
SeaSat 1 4.5 18:15:00 10° NNE 18:18:42 22° NW 18:22:24 10° W
ATLAS 2AS CENTAUR R/B 3.6 18:11:42 10° WSW 18:19:27 53° NNW 18:25:31 17° NE
Meteor 1-21 Rocket 4.5 18:14:37 10° SSE 18:19:48 43° E 18:25:02 10° NNE
Aureole 2 Rocket 2.9 18:17:11 10° S 18:19:28 35° SE 18:19:28 35° SE
Cosmos 158 Rocket 3.9 18:15:12 10° NNW 18:20:31 70° ENE 18:25:54 10° SSE
Cosmos 1680 Rocket 3.6 18:17:18 10° NNW 18:22:29 53° ENE 18:26:36 16° SE
SAR-Lupe-4 3.6 18:31:27 53° ESE 18:31:27 53° ESE 18:34:52 10° S
Meteor 2-10 Rocket 4.1 18:26:26 10° NNW 18:31:58 64° W 18:37:13 10° S
CZ-2D R/B 4.2 18:28:31 10° S 18:32:16 49° W 18:36:02 10° NNW
Cosmos 1818 3.9 18:28:14 10° SSW 18:33:23 46° ESE 18:34:52 37° E
H-2A R/B 3.7 18:29:19 10° N 18:33:23 35° WNW 18:37:23 10° SW
Cosmos 2297 Rocket 4.4 18:31:49 10° WNW 18:35:10 16° NNW 18:38:31 10° NNE
YAOGAN 1 2.5 18:32:17 10° SSE 18:36:37 87° WSW 18:40:59 10° NNW
Cosmos 1892 Rocket 4.0 18:33:50 10° SSW 18:38:07 60° WNW 18:42:26 10° N
CSL-04 Rocket 3.6 18:35:11 10° SSE 18:40:32 68° ENE 18:46:01 10° NNW
Helios 1A Rocket 2.8 18:37:22 10° SSE 18:41:31 87° ENE 18:45:42 10° NNW
SAR-Lupe-1 4.0 18:42:35 65° SE 18:42:35 65° SE 18:45:50 10° S
APEX 4.5 18:35:49 10° SSW 18:42:48 77° ESE 18:46:31 26° NE
USA 234 3.3 18:40:20 33° E 18:43:23 67° NNE 18:49:54 10° WNW
Iridium 4 Rocket 3.6 18:39:27 10° N 18:45:11 60° E 18:50:30 10° SSE
RESURS DK-1 4.4 18:41:49 10° W 18:45:13 24° NW 18:47:47 14° N
MOS 1 Rocket 3.2 18:40:56 10° N 18:45:18 75° WNW 18:49:34 10° SSW
ATLAS 5 CENTAUR R/B 2.4 18:41:41 10° WSW 18:45:44 45° NNW 18:47:37 29° NNE
Meteor 2-1 Rocket 4.3 18:40:46 10° NNW 18:46:22 75° W 18:51:52 10° S
Cosmos 1092 Rocket 3.9 18:40:49 10° S 18:46:52 59° E 18:52:55 10° NNE
Cosmos 1812 Rocket 3.4 18:43:51 10° N 18:48:15 64° ENE 18:48:54 56° ESE
SKYMED 2 4.2 18:44:49 10° N 18:49:05 55° WNW 18:53:19 10° SSW
Cosmos 2344 4.1 18:42:55 10° NW 18:51:40 73° NE 18:59:36 24° ESE
SJ 16-02 1.2 18:51:09 10° SSW 18:55:34 80° ESE 18:55:59 70° NE
SJ-11-01 4.5 18:51:07 10° S 18:55:48 72° WSW 19:00:30 10° NNW
Aureole 3 3.8 18:52:26 10° NNW 18:56:02 49° W 18:59:05 10° S
Cosmos 2112 Rocket 3.9 18:54:42 10° NNW 19:00:01 86° ENE 19:02:18 35° SSE
Cosmos 1455 3.2 18:56:38 10° NNW 19:00:17 45° W 19:03:57 10° SSW
MetOp-A 4.4 19:04:29 49° NE 19:04:29 49° NE 19:08:58 10° N
CZ-4C R/B 3.5 18:58:40 10° W 19:03:47 34° NNW 19:06:29 25° NNE
Nadezhda 4 Rocket 4.2 18:58:03 10° SSW 19:04:17 72° WNW 19:10:30 10° N
Cosmos 2263 Rocket 3.7 19:01:32 10° WSW 19:06:37 32° NW 19:10:38 15° NNE
X-37B 3.5 19:05:03 10° SSW 19:05:31 12° SSW 19:05:31 12° SSW
COSMOS 2406 3.2 19:09:01 10° NNW 19:14:48 64° NE 19:14:49 64° NE
ERS-2 3.4 19:16:37 36° NW 19:17:05 38° WNW 19:20:28 10° SW
ARGOS 3.5 19:14:02 10° S 19:19:20 62° WSW 19:24:42 10° NNW
ISS -1.2 19:16:58 10° SW 19:17:58 17° SW 19:17:58 17° SW
Lacrosse 5 3.3 19:17:40 10° WNW 19:22:11 33° SW 19:24:15 24° S
CZ-2C R/B 3.1 19:27:19 50° S 19:27:19 50° S 19:31:26 10° S
Cosmos 1626 Rocket 4.3 19:26:37 10° SSW 19:30:53 50° WNW 19:31:14 49° WNW
NOSS 3-1 (C) 4.1 19:23:38 10° NW 19:30:56 76° SW 19:34:39 37° SSE
CZ-4 R/B 3.9 19:30:36 10° SW 19:33:46 21° W 19:36:54 10° NW
COSMOS 2455 3.4 19:29:33 10° WSW 19:35:27 53° NW 19:37:13 40° N
Cosmos 1553 Rocket 3.9 19:29:01 10° N 19:35:29 84° E 19:36:14 71° SSE
Cosmos 1833 Rocket 2.9 19:31:49 10° NNW 19:36:25 59° N 19:36:25 59° N
Cosmos 1844 3.8 19:32:57 10° SW 19:38:37 71° WNW 19:39:07 67° NNW
Cosmos 2082 Rocket 3.2 19:34:07 10° NNW 19:37:48 36° N 19:37:48 36° N
Cosmos 2026 Rocket 4.0 19:35:11 10° SSW 19:41:18 77° WNW 19:47:33 10° N
USA 281 3.7 19:43:33 44° NNE 19:43:33 44° NNE 19:48:27 10° NNW
USA 229 DEB 3.9 19:40:43 10° NW 19:47:59 78° SW 19:49:18 62° SSE
USA 229 3.9 19:40:50 10° NW 19:48:04 79° SW 19:49:21 63° SSE
USA 267 4.0 19:51:35 39° S 19:51:35 39° S 19:55:59 10° SSW
H-2A R/B 4.3 19:54:42 10° SW 19:58:34 22° W 20:02:31 10° NW
Cosmos 1844 Rocket 3.6 19:55:13 10° WSW 20:00:38 45° NW 20:01:07 44° NW
NOSS 3-1 (A) 4.0 19:56:12 10° NW 20:03:32 76° SW 20:04:27 69° S
ATLAS 2AS CENTAUR R/B 3.9 20:05:02 10° WNW 20:12:05 34° N 20:12:56 33° N
USA 234 3.7 20:27:40 56° W 20:27:40 56° W 20:33:01 10° WNW
ATLAS 5 CENTAUR R/B 4.3 20:27:53 10° WNW 20:29:10 16° NW 20:29:10 16° NW
SJ 16-02 4.2 20:31:40 10° W 20:33:02 15° WNW 20:33:02 15° WNW
CZ-4C R/B 4.3 20:48:31 10° NW 20:51:41 25° NNW 20:51:41 25° NNW
